www.pogodaiklimat.ru

Погода и климат >> Архив погоды >> Дания >> Мыс Roesnaes


ПОГОДА на Мысе Roesnaes

  • Прогноз погоды на Мысе Roesnaes
  • Монитор погоды на Мысе Roesnaes

АРХИВ ПОГОДЫ на Мысе Roesnaes

Время (UTC), дата Ветер
(напр.,м/с)
 
Видим.   Явления Облачность Т
(С)
Тd
(С)
f
(%)
Тe
(С)
Тes
(С)
Комфортность P
(гПа)
Po
(гПа)
Тmin
(С)
Tmax
(С)
R
(мм)
R24
(мм)
S
(см)
22 15.08 З 7 8000 м дымка н/о +16.8 +16.0 95 +16 +16 1007.4 1005.5 0.1
23 15.08 З 9 8000 м дымка н/о +17.0 +16.8 99 +16 +16 1007.6 1005.8
00 16.08 З 9 7000 м дымка {ливн. осадки, дождь} н/о +16.8 +16.4 97 +15 +15 1008.0 1006.1 0.1
01 16.08 З 8 7000 м в посл. час дождь {ливн. осадки} н/о +16.6 +15.5 93 +15 +15 1008.5 1006.6
02 16.08 З 9 7000 м дымка н/о +16.4 +15.3 93 +15 +15 1008.9 1007.0
03 16.08 З 8 7000 м дымка {ливн. осадки, дождь} н/о +16.2 +16.2 100 +14 +14 1009.1 1007.2 0.0
04 16.08 З 8 7000 м дымка н/о +15.8 +15.8 100 +14 +14 1009.4 1007.6
05 16.08 З 8 7000 м дымка н/о +15.9 +15.2 96 +14 +14 1009.9 1008.1
06 16.08 З 6 7000 м дымка {ливн. осадки, дождь} н/о +16.5 +15.5 94 +15 +15 1010.5 1008.6 +15.7 +17.6
07 16.08 З 8 7000 м в посл. час морось {ливн. осадки, дождь} н/о +16.2 +15.7 97 +15 +15 1011.0 1009.1
08 16.08 СЗ 7 7000 м дымка н/о +16.2 +14.6 90 +15 +15 1011.6 1009.7
09 16.08 З 6 8000 м дымка {ливн. осадки, дождь} н/о +17.7 +14.3 80 +17 +17 1011.9 1010.0 0.0
10 16.08 З 6 8000 м дымка н/о +18.8 +14.2 75 +19 +19 1012.2 1010.3
11 16.08 З 8 8000 м дымка н/о +18.4 +13.1 71 +18 +18 1012.3 1010.4
12 16.08 З 9 8000 м дымка {ливн. осадки, дождь} н/о +18.1 +12.0 68 +17 +17 1012.5 1010.6
13 16.08 З 8 8000 м дымка н/о +19.0 +11.7 63 +19 +19 1012.5 1010.7
14 16.08 З 5 8000 м дымка н/о +19.8 +12.5 63 +21 +21 комфорт 1012.5 1010.6
15 16.08 З 6 8000 м дымка н/о +18.8 +11.8 64 +19 +19 1012.4 1010.5
16 16.08 З 8 8000 м дымка н/о +18.3 +10.4 60 +18 +18 1012.2 1010.4
17 16.08 З 9 8000 м дымка н/о +18.2 +9.5 57 +17 +17 1012.2 1010.3
18 16.08 З 8 8000 м дымка н/о +17.6 +11.0 65 +17 +17 1012.3 1010.4 +16.0 +19.9
19 16.08 ЮЗ 7 8000 м дымка н/о +17.6 +10.0 61 +17 +17 1012.4 1010.6
20 16.08 Ю 6 8000 м дымка н/о +17.3 +11.8 70 +16 +16 1012.3 1010.4
21 16.08 Ю 7 8000 м дымка н/о +17.0 +12.5 75 +16 +16 1011.9 1010.0
22 16.08 Ю 9 8000 м дымка н/о +17.1 +12.7 75 +16 +16 1011.2 1009.3
23 16.08 Ю 10 8000 м дымка н/о +17.3 +13.5 78 +16 +16 1010.6 1008.7
00 17.08 Ю 12 8000 м дымка н/о +17.4 +13.9 80 +16 +16 1009.7 1007.9
01 17.08 Ю 11 8000 м дымка н/о +17.4 +15.9 91 +16 +16 1009.0 1007.2
02 17.08 Ю 12 7000 м дымка н/о +17.7 +15.9 89 +16 +16 1008.0 1006.2
03 17.08 Ю 13 7000 м слаб. морось {дождь} н/о +17.4 +15.7 90 +16 +16 1007.5 1005.6 0.1
04 17.08 Ю 13 7000 м морось {дождь} н/о +16.5 +15.3 93 +14 +14 1007.3 1005.4 0.5
05 17.08 Ю 12 5000 м слаб. дождь {морось} н/о +16.0 +16.0 100 +14 +14 1006.9 1005.1 1
06 17.08 Ю 13 6000 м слаб. дождь {морось} н/о +15.9 +15.9 100 +13 +13 1006.4 1004.6 +15.8 +17.8 3
07 17.08 Ю 14 5000 м слаб. дождь {морось} н/о +16.0 +16.0 100 +13 +13 1006.1 1004.2 1
08 17.08 Ю 13 5000 м слаб. дождь н/о +16.1 +16.1 100 +14 +14 1005.7 1003.8 2
09 17.08 Ю 15 7000 м в посл. час дождь {морось} н/о +16.2 +16.0 99 +14 +14 1005.1 1003.2 3
10 17.08 Ю 15 6000 м дымка н/о +16.3 +16.3 100 +14 +14 1004.9 1003.0
11 17.08 Ю 15 6000 м в посл. час морось {ливн. осадки, дождь} н/о +16.5 +16.5 100 +14 +14 1004.6 1002.8 0.1
12 17.08 Ю 12 7000 м в посл. час морось {ливн. осадки, дождь} н/о +17.1 +16.3 95 +15 +15 1004.7 1002.8 0.1
13 17.08 Ю 11 7000 м дымка н/о +17.8 +16.4 92 +16 +16 1004.7 1002.9
14 17.08 Ю 10 7000 м дымка н/о +17.9 +16.9 94 +17 +17 1004.7 1002.9
15 17.08 Ю 11 7000 м дымка н/о +17.9 +17.2 96 +17 +17 1004.7 1002.8
16 17.08 Ю 9 7000 м дымка н/о +17.9 +17.9 100 +17 +17 1004.7 1002.8
17 17.08 Ю 9 7000 м дымка н/о +18.0 +18.0 100 +17 +17 1004.7 1002.9
18 17.08 Ю 8 6000 м слаб. ливневой дождь н/о +17.7 +17.7 100 +17 +17 1005.0 1003.2 +15.8 +18.2 0.7
19 17.08 Ю 7 7000 м дымка {ливн. осадки} н/о +17.3 +17.3 100 +16 +16 1005.1 1003.2
20 17.08 Ю 7 6000 м дымка н/о +17.6 +17.6 100 +17 +17 1005.0 1003.1
21 17.08 ЮЗ 8 6000 м дымка {ливн. осадки} н/о +17.6 +17.6 100 +17 +17 1005.1 1003.3 0.0
22 17.08 Ю 5 5000 м дымка н/о +17.2 +17.2 100 +16 +16 1005.2 1003.3
23 17.08 ЮЗ 6 5000 м слаб. ливневой дождь н/о +17.2 +17.2 100 +16 +16 1005.9 1004.1 0.1
00 18.08 ЮЗ 5 8000 м в посл. час дождь {ливн. осадки} н/о +16.7 +14.3 86 +16 +16 1005.6 1003.7 1
01 18.08 ЮЗ 3 8000 м в посл. час морось {ливн. осадки} н/о +16.6 +15.5 93 +16 +16 1005.2 1003.3 0.1
02 18.08 З 6 8000 м дымка {ливн. осадки, дождь} н/о +16.6 +15.4 93 +16 +16 1005.0 1003.1
03 18.08 З 6 8000 м дымка {ливн. осадки, дождь} н/о +16.6 +14.8 89 +16 +16 1004.8 1002.9 0.1
04 18.08 ЮЗ 4 7000 м дымка н/о +16.2 +15.9 98 +16 +16 1004.3 1002.5
05 18.08 ЮЗ 5 7000 м дымка н/о +16.0 +16.0 100 +15 +15 1004.7 1002.8
06 18.08 Ю 3 7000 м дымка {ливн. осадки, дождь} н/о +16.2 +16.2 100 +16 +16 1004.8 1002.9 +15.2 +17.8
07 18.08 Ю 4 7000 м дымка н/о +16.5 +16.3 99 +16 +16 1004.9 1003.0
08 18.08 Ю 5 8000 м дымка н/о +16.4 +16.4 100 +15 +15 1004.6 1002.7
09 18.08 Ю 6 8000 м дымка н/о +17.2 +15.9 92 +16 +16 1004.3 1002.5
10 18.08 Ю 7 8000 м дымка н/о +17.5 +16.6 94 +17 +17 1004.0 1002.1
11 18.08 Ю 7 7000 м слаб. дождь {морось} н/о +17.4 +17.2 99 +16 +16 1003.9 1002.0
12 18.08 Ю 8 6000 м слаб. дождь {морось} н/о +17.3 +17.3 100 +16 +16 1004.1 1002.3 0.2
13 18.08 Ю 6 7000 м слаб. ливневой дождь н/о +17.2 +16.2 94 +16 +16 1003.6 1001.8 0.2
14 18.08 ЮЗ 8 8000 м морось {ливн. осадки} н/о +16.5 +13.8 84 +15 +15 1003.5 1001.7 0.3
15 18.08 ЮЗ 5 7000 м слаб. ливневой дождь н/о +16.7 +14.7 88 +16 +16 1003.5 1001.7 0.5
16 18.08 ЮЗ 7 6000 м морось {ливн. осадки, дождь} н/о +15.5 +15.1 97 +14 +14 1003.6 1001.7 1
17 18.08 ЮЗ 6 8000 м дымка н/о +16.3 +13.9 86 +15 +15 1003.3 1001.5
18 18.08 ЮЗ 9 8000 м дымка {ливн. осадки, дождь} н/о +15.9 +14.6 92 +14 +14 1003.7 1001.9 +15.4 +17.6 1
19 18.08 ЮЗ 9 8000 м дымка н/о +16.4 +15.0 91 +15 +15 1004.0 1002.1
20 18.08 ЮЗ 9 8000 м дымка н/о +16.6 +15.1 91 +15 +15 1004.4 1002.5
21 18.08 ЮЗ 9 8000 м дымка н/о +16.5 +15.5 94 +15 +15 1005.0 1003.2
22 18.08 ЮЗ 10 7000 м дымка н/о +16.5 +15.7 95 +15 +15 1005.7 1003.9
23 18.08 ЮЗ 10 7000 м дымка н/о +16.2 +15.8 97 +14 +14 1006.1 1004.2
00 19.08 ЮЗ 11 7000 м дымка н/о +16.2 +15.4 95 +14 +14 1006.5 1004.6
01 19.08 ЮЗ 9 7000 м дымка н/о +16.1 +15.7 97 +14 +14 1007.0 1005.1
02 19.08 ЮЗ 8 7000 м дымка н/о +16.0 +15.6 97 +14 +14 1006.9 1005.0
03 19.08 ЮЗ 9 7000 м дымка н/о +15.8 +15.8 100 +14 +14 1007.4 1005.6
04 19.08 Ю 10 7000 м дымка н/о +16.0 +15.5 97 +14 +14 1007.5 1005.6
05 19.08 ЮЗ 11 7000 м дымка н/о +15.9 +15.5 97 +14 +14 1007.9 1006.0
06 19.08 ЮЗ 11 7000 м дымка н/о +16.2 +15.4 95 +14 +14 1008.3 1006.4 +15.7 +16.7
07 19.08 ЮЗ 12 7000 м дымка н/о +17.2 +14.9 86 +15 +15 1008.3 1006.4
08 19.08 ЮЗ 12 7000 м слаб. ливневой дождь н/о +16.5 +13.5 82 +14 +14 1009.1 1007.2
09 19.08 ЮЗ 10 7000 м в посл. час дождь {ливн. осадки} н/о +17.2 +14.8 86 +16 +16 1009.2 1007.3 0.0
10 19.08 Ю 11 8000 м дымка н/о +17.3 +13.6 79 +16 +16 1009.2 1007.4
11 19.08 ЮЗ 11 8000 м дымка н/о +18.3 +14.4 78 +17 +17 1009.8 1007.9
12 19.08 Ю 11 8000 м слаб. ливневой дождь н/о +16.1 +14.1 88 +14 +14 1010.6 1008.8 0.0
13 19.08 ЮЗ 10 7000 м дымка {ливн. осадки} н/о +18.2 +14.6 80 +17 +17 1011.2 1009.4
14 19.08 ЮЗ 13
{26}
8000 м в посл. час дождь {ливн. осадки} н/о +17.6 +13.8 78 +16 +16 1011.8 1010.0 3
15 19.08 ЮЗ 11
{26}
7000 м в посл. час дождь {ливн. осадки} н/о +17.9 +13.6 76 +17 +17 1012.4 1010.5 3
16 19.08 ЮЗ 8 7000 м в посл. час морось {ливн. осадки} н/о +17.7 +15.1 85 +17 +17 1012.9 1011.0 0.2
17 19.08 З 9 8000 м дымка н/о +18.0 +13.1 73 +17 +17 1013.1 1011.3
18 19.08 З 7
{26}
7000 м дымка {ливн. осадки, дождь} н/о +17.6 +14.3 81 +17 +17 1013.5 1011.7 +15.1 +18.8 0.2
19 19.08 З 7 7000 м дымка н/о +17.2 +14.3 83 +16 +16 1014.1 1012.3
20 19.08 ЮЗ 8 7000 м дымка н/о +17.2 +14.0 81 +16 +16 1014.5 1012.6
21 19.08 ЮЗ 9 7000 м дымка {ливн. осадки, дождь} н/о +16.8 +14.3 85 +15 +15 1014.7 1012.9 0.0
22 19.08 ЮЗ 11 7000 м дымка н/о +16.6 +14.6 88 +15 +15 1014.9 1013.1
23 19.08 ЮЗ 10 7000 м дымка н/о +15.9 +15.1 95 +14 +14 1015.2 1013.4
00 20.08 ЮЗ 10 7000 м дымка {ливн. осадки, дождь} н/о +16.0 +15.4 96 +14 +14 1015.5 1013.7
01 20.08 ЮЗ 9 7000 м дымка н/о +16.0 +15.6 97 +14 +14 1015.8 1013.9
02 20.08 ЮЗ 9 7000 м дымка н/о +15.6 +15.3 98 +13 +13 1016.0 1014.1
03 20.08 Ю 8 7000 м дымка н/о +15.5 +14.6 94 +13 +13 1016.2 1014.4
04 20.08 ЮЗ 9 7000 м дымка н/о +15.6 +14.4 93 +14 +14 1016.5 1014.6
05 20.08 Ю 7 8000 м дымка н/о +15.4 +13.7 90 +14 +14 1016.6 1014.7
06 20.08 ЮЗ 8 8000 м дымка н/о +15.6 +13.8 89 +14 +14 1017.1 1015.2 +15.3 +17.6
07 20.08 Ю 8 7000 м дымка н/о +16.4 +13.9 85 +15 +15 1017.3 1015.4
08 20.08 ЮЗ 8 8000 м дымка н/о +17.4 +14.0 80 +16 +16 1017.5 1015.6
09 20.08 ЮЗ 8 7000 м дымка н/о +17.6 +14.2 80 +17 +17 1018.0 1016.2
10 20.08 ЮЗ 8 8000 м дымка н/о +18.8 +13.1 69 +19 +19 1018.4 1016.5
11 20.08 ЮЗ 5 8000 м дымка н/о +19.1 +13.6 70 +20 +20 1018.7 1016.8
12 20.08 З 11 8000 м дымка н/о +18.1 +12.2 68 +17 +17 1018.6 1016.7 0.1
13 20.08 ЮЗ 7 8000 м дымка н/о +19.2 +12.8 66 +20 +20 1019.2 1017.3
14 20.08 З 10 8000 м дымка н/о +19.6 +11.8 61 +20 +20 1019.4 1017.5
15 20.08 З 8 8000 м дымка н/о +19.7 +12.2 62 +21 +21 комфорт 1019.8 1017.9
16 20.08 З 10 8000 м дымка н/о +18.7 +12.0 65 +18 +18 1020.1 1018.3
17 20.08 З 8 8000 м дымка н/о +18.4 +12.0 66 +18 +18 1020.6 1018.7
18 20.08 З 8 8000 м дымка н/о +18.0 +11.6 66 +17 +17 1020.9 1019.0 +15.6 +20.4
19 20.08 З 8 7000 м дымка н/о +17.5 +11.8 69 +16 +16 1021.3 1019.5
20 20.08 З 7 8000 м дымка н/о +17.3 +12.3 72 +16 +16 1021.9 1020.0
21 20.08 З 7 8000 м дымка н/о +16.9 +12.7 76 +16 +16 1022.1 1020.2
22 20.08 З 7 8000 м дымка н/о +16.7 +12.9 78 +15 +15 1022.2 1020.3
23 20.08 ЮЗ 8 8000 м дымка н/о +16.0 +13.4 85 +14 +14 1022.5 1020.6
00 21.08 ЮЗ 8 8000 м дымка н/о +16.0 +13.2 83 +14 +14 1022.5 1020.6
01 21.08 ЮЗ 8 8000 м дымка н/о +15.8 +13.2 85 +14 +14 1022.6 1020.7
02 21.08 ЮЗ 8 8000 м дымка н/о +15.7 +12.7 82 +14 +14 1022.9 1021.0
03 21.08 ЮЗ 9 8000 м дымка н/о +15.6 +13.0 85 +14 +14 1023.0 1021.1
04 21.08 З 9 7000 м дымка н/о +15.1 +12.9 87 +13 +13 1023.3 1021.4
05 21.08 З 8 7000 м дымка н/о +15.0 +13.5 91 +13 +13 1023.7 1021.8
06 21.08 З 5 8000 м дымка н/о +14.9 +12.8 87 +14 +14 1024.5 1022.6 +14.5 +18.0
07 21.08 З 4 8000 м дымка н/о +16.2 +12.7 80 +15 +15 1025.1 1023.2
08 21.08 З 5 8000 м дымка н/о +16.3 +10.8 70 +15 +15 1025.5 1023.6
09 21.08 З 6 8000 м дымка н/о +17.2 +11.0 67 +16 +16 1025.9 1024.0
10 21.08 З 7 8000 м дымка н/о +17.6 +11.3 67 +17 +17 1026.1 1024.2
11 21.08 З 8 8000 м дымка н/о +17.0 +11.0 68 +16 +16 1026.3 1024.4 0.1
12 21.08 З 7 8000 м дымка н/о +17.4 +10.8 65 +16 +16 1026.4 1024.5 0.1
13 21.08 З 8 8000 м дымка н/о +17.8 +11.2 65 +17 +17 1026.2 1024.3
14 21.08 З 8 8000 м дымка н/о +18.9 +12.0 64 +19 +19 1026.2 1024.3
15 21.08 З 8 8000 м дымка н/о +18.2 +11.8 66 +17 +17 1026.3 1024.5
16 21.08 З 7 8000 м дымка н/о +18.3 +12.1 67 +18 +18 1026.5 1024.6
17 21.08 З 6 8000 м дымка н/о +17.8 +12.5 71 +17 +17 1026.6 1024.7 0.1
18 21.08 З 4 8000 м дымка н/о +17.8 +12.9 73 +18 +18 1026.5 1024.6 +14.9 +19.0 0.1
19 21.08 ЮЗ 3 8000 м дымка н/о +17.3 +12.8 75 +17 +17 1026.7 1024.8
20 21.08 ЮЗ 3 9000 м дымка н/о +17.3 +13.5 78 +17 +17 1027.0 1025.1
21 21.08 ЮЗ 4 8000 м дымка н/о +17.0 +12.5 75 +17 +17 1027.1 1025.2
22 21.08 ЮЗ 5 9000 м дымка н/о +16.8 +12.9 78 +16 +16 1027.1 1025.2
23 21.08 ЮЗ 5 9000 м дымка н/о +16.5 +12.7 78 +16 +16 1027.2 1025.3
00 22.08 ЮЗ 5 9000 м дымка н/о +16.1 +12.9 81 +15 +15 1027.0 1025.1
01 22.08 ЮЗ 6 8000 м дымка н/о +15.8 +13.5 86 +14 +14 1026.9 1025.0
02 22.08 ЮЗ 7 8000 м дымка н/о +15.8 +13.8 88 +14 +14 1026.8 1024.9
03 22.08 Ю 7 8000 м дымка н/о +15.7 +13.5 87 +14 +14 1026.6 1024.7
04 22.08 Ю 8 8000 м дымка н/о +15.7 +13.5 87 +14 +14 1026.3 1024.4
05 22.08 Ю 8 8000 м дымка н/о +16.2 +12.4 78 +15 +15 1026.2 1024.3
06 22.08 Ю 10 8000 м дымка н/о +17.1 +13.4 79 +16 +16 1026.0 1024.1 +15.5 +17.8
07 22.08 Ю 11 8000 м дымка н/о +17.6 +13.9 79 +16 +16 1025.9 1024.0
08 22.08 Ю 11 8000 м дымка н/о +17.5 +14.2 81 +16 +16 1025.9 1024.0
09 22.08 Ю 9 8000 м дымка н/о +18.8 +14.6 77 +19 +19 1025.8 1024.0
10 22.08 Ю 9 8000 м дымка н/о +19.5 +14.7 74 +20 +20 1025.6 1023.7
11 22.08 Ю 9 8000 м дымка н/о +20.2 +15.1 72 +22 +22 комфорт 1025.1 1023.2
12 22.08 Ю 10 8000 м дымка н/о +19.9 +14.3 70 +21 +21 комфорт 1024.4 1022.5
13 22.08 Ю 11 8000 м дымка н/о +20.2 +14.2 68 +22 +22 комфорт 1023.8 1021.9
14 22.08 Ю 11 8000 м дымка н/о +20.5 +14.4 68 +22 +22 комфорт 1023.1 1021.2
15 22.08 Ю 9 8000 м дымка н/о +19.7 +14.9 74 +21 +21 комфорт 1023.3 1021.4
16 22.08 ЮЗ 9 8000 м дымка н/о +20.3 +12.8 62 +22 +22 комфорт 1022.9 1021.1
17 22.08 ЮЗ 9 8000 м дымка н/о +20.0 +14.0 68 +21 +21 комфорт 1023.1 1021.2
18 22.08 З 9 8000 м дымка н/о +19.5 +13.1 66 +20 +20 1023.2 1021.3 +17.0 +20.9
19 22.08 ЮЗ 8 8000 м дымка н/о +18.9 +13.7 72 +19 +19 1023.4 1021.5
20 22.08 ЮЗ 7 8000 м дымка н/о +18.6 +13.7 73 +19 +19 1023.6 1021.7

 

Местоположение метеостанции Мыс Roesnaes (Дания): широта 55.75 долгота 10.87 высота над уровнем моря 15 м.

В архиве по умолчанию представлена погода на Мысе Roesnaes за последнюю неделю. Архивные данные за месяц целиком и за предыдущие месяцы, начиная с января 2011 года, Вы можете получить, выбрав интересующий диапазон дат из раскрывающегося списка и нажав кнопку "Ввод!".


*Определитесь, кто Вы:
робот инопланетянин человек

Внимание! Время в таблицах - всемирное. Для получения местного времени необходимо прибавить поправку, которая равна 1 ч.

Смотрите также архив погоды в соседних городах и на ближайших метеорологических станциях:

Погода в Гнибене (Дания) (39 км)
Погода на Мысе Sletterhage (Дания) (45 км)
Погода в Оденсе (Дания) (45 км)
Погода в Хольбеке (Дания) (46 км)
Погода в Арслеве (Дания) (56 км)
Погода в Флаккебэрге (Дания) (58 км)
Погода в Орхусе (Дания) (59 км)
Погода в Тысофте (Дания) (63 км)
Погода в Тирструпе (Дания) (65 км)
Погода в Омо (Дания) (67 км)

Пояснения к столбцам:

Ветер - указаны скорость ветра в м/с - средняя за 10 мин, порывы в срок и между сроками (в фигурных скобках) и направление, откуда дует ветер: С - северный, СВ - северо-восточный, В - восточный, ЮВ - юго-восточный, Ю - южный, ЮЗ - юго-западный, З - западный, СЗ - северо-западный.
Видимость - горизонтальная дальность видимости в метрах или километрах. При видимости от 1 до 10 км при отсутствии осадков обычно наблюдается дымка, при ухудшении видимости до 1 км и менее - туман. В сухую погоду видимость может ухудшаться дымом, пылью или мглою.
Явления - указаны атмосферные явления, наблюдавшиеся в срок или в последний час перед сроком; фигурными скобками обозначены явления, наблюдавшиеся между сроками (за 1-3 часа до срока); квадратными скобками обозначены град или гололедные отложения с указанием их диаметра в мм.
Облачность - указаны через наклонную черту общая и нижняя облачность в баллах и высота нижней границы облаков в метрах; квадратными скобками обозначены формы облаков: Ci - перистые, Cs - перисто-слоистые, Cc - перисто-кучевые, Ac - высококучевые, As - высокослоистые, Sc - слоисто-кучевые, Ns - слоисто-дождевые, Cu - кучевые, Cb - кучево-дождевые. Подробнее классификацию облаков см. в Атласе облаков (PDF).
T - Температура воздуха - температура, измеренная на высоте 2 м над землей.
Td - Температура точки росы - температура, при понижении до которой содержащийся в воздухе водяной пар достигнет насыщения.
f - Относительная влажность воздуха - влажноcть воздуха, измеренная на высоте 2 м над землей.
Te - Эффективная температура - температура, которую ощущает одетый по сезону человек в тени. Характеристика душности погоды. При расчете учитывается влияние влажности воздуха и скорости ветра на теплоощущения человека.
Tes - Эффективная температура на солнце - температура, которую ощущает человек, с поправкой на солнечный нагрев. Характеристика знойности погоды. Зависит от высоты солнца над горизонтом, облачности и скорости ветра. Ночью, в пасмурную погоду, а также при ветре 12 м/с и более поправка равна нулю.
P - Атмосферное давление - приведенное к уровню моря атмосферное давление.
Po - Атмосферное давление - измеренное на уровне метеостанции атмосферное давление.
Tmin - Минимальная температура - минимум температуры воздуха на высоте 2 м над землей.
Tmax - Максимальная температура - максимум температуры воздуха на высоте 2 м над землей.
R - Количество осадков - Количество выпавших осадков за период времени, мм. При наведении курсора мыши на число - период времени, за который выпало указанное количество осадков.
R24 - Количество осадков - Количество выпавших осадков за 24 часа, мм.
S - Снежный покров - Высота снежного покрова, см. При наведении курсора мыши на число - состояние снежного покрова и степень покрытия местности в баллах.